Simultaneous Nadir Overpasses (SNOs) Predictions

Prediction of SNOs between AQUA and METOP-B Satellite Orbit:

Table of predicted SNOs for the next 14.0 days since TLE Epoch: 2/16/2018
Index Date (AQUA) Time (AQUA) Lat,Lon (AQUA) SZA (AQUA ) Date (METOP-B) Time (METOP-B) Lat,Lon (METOP-B) SZA (METOP-B ) Distance(km) Time Diff (sec)
1 02/18/2018 12:32:09 -73.86, 166.17 94.49 02/18/2018 12:31:42 -73.83, 166.20 94.51 3.26 27
2 02/18/2018 13:21:37 73.89, -26.25 85.53 02/18/2018 13:22:21 73.88, -26.36 85.52 3.60 44
3 02/21/2018 08:06:26 -73.86,-127.39 95.50 02/21/2018 08:06:03 -73.87,-127.30 95.49 3.23 23
4 02/21/2018 08:55:54 73.90, 40.17 84.53 02/21/2018 08:56:42 73.92, 40.15 84.55 2.78 48
5 02/24/2018 02:51:03 73.18, 132.85 82.75 02/24/2018 02:49:57 73.13, 130.09 82.84 89.14 66
6 02/24/2018 03:40:42 -73.87, -60.96 96.53 02/24/2018 03:40:24 -73.86, -60.91 96.53 1.58 18
7 02/24/2018 04:30:10 73.91, 106.58 83.51 02/24/2018 04:31:03 73.91, 106.53 83.51 1.46 53
8 02/26/2018 22:25:23 73.36,-161.08 81.89 02/26/2018 22:24:15 73.32,-163.09 81.96 64.30 68
9 02/26/2018 23:14:59 -73.88, 5.45 97.57 02/26/2018 23:14:46 -73.85, 5.47 97.59 3.05 13
10 02/27/2018 00:04:27 73.93, 172.97 82.48 02/27/2018 00:05:24 73.95, 173.03 82.49 2.61 57
11 03/01/2018 17:59:44 73.60, -95.14 81.08 03/01/2018 17:58:33 73.51, -96.27 81.05 36.95 71
12 03/01/2018 18:49:16 -73.90, 71.84 98.61 03/01/2018 18:49:07 -73.89, 71.96 98.63 3.83 9
13 03/01/2018 19:38:44 73.96,-120.65 81.44 03/01/2018 19:39:46 73.93,-120.60 81.40 3.02 62




NCC Satellite Simultaneous Nadir Overpasses (SNOs) Prediction Service
